This demonstration page uses our WeatherBlox Daily Observations layout. Learn more.

Hourly Observations for October 13, 2020

Temp ( °F °C ) Dew Point ( °F °C ) Humidity (%) Winds ( mph kmh ) Pressure ( in mb ) Visibility ( mi km ) Precip ( " mm )
12:53 am 00:53 Clear 46 7.8 26 -3.3 46 46 N 6 9 29.98 1015 10 16.0934 0 0
1:53 am 01:53 Clear 43 6.1 27 -2.8 53 53 NW 9 15 30.01 1016 10 16.0934 0 0
2:53 am 02:53 Clear 46 7.8 28 -2.2 50 50 WSW 6 9 30.03 1017 10 16.0934 0 0
3:53 am 03:53 Clear 44 6.7 30 -1.1 58 58 N 3 6 30.09 1019 10 16.0934 0 0
4:53 am 04:53 Clear with Light Snow 37 2.8 27 -2.8 67 67 E 5 7 30.12 1020 10 16.0934 0.001 0.001
5:53 am 05:53 Clear 38 3.3 31 -0.6 76 76 ENE 6 9 30.14 1021 10 16.0934 0.001 0.001
6:53 am 06:53 Clear 36 2.2 30 -1.1 79 79 NNE 8 13 30.17 1022 10 16.0934 0 0
7:53 am 07:53 Sunny 38 3.3 31 -0.6 76 76 Calm 30.21 1023 10 16.0934 0 0
8:53 am 08:53 Sunny 46 7.8 34 1.1 63 63 Calm 30.22 1023 10 16.0934 0 0
9:53 am 09:53 Sunny 52 11.1 35 1.7 53 53 SSE 5 7 30.19 1023 10 16.0934 0 0
10:53 am 10:53 Sunny 56 13.3 34 1.1 44 44 SSE 8 13 30.18 1022 10 16.0934 0 0
11:53 am 11:53 Sunny 60 15.6 34 1.1 38 38 SSE 8 13 30.14 1021 10 16.0934 0 0
12:53 pm 12:53 Sunny 66 18.9 32 0 28 28 SSE 14 22 30.07 1018 10 16.0934 0 0
1:53 pm 13:53 Sunny 68 20 31 -0.6 25 25 SSE 17 28 30.02 1017 10 16.0934 0 0
2:53 pm 14:53 Sunny 70 21.1 30 -1.1 23 23 S 22 35 29.94 1014 10 16.0934 0 0
3:53 pm 15:53 Sunny 73 22.8 30 -1.1 20 20 S 18 30 29.88 1012 10 16.0934 0 0
4:53 pm 16:53 Sunny 73 22.8 29 -1.7 19 19 SSW 21 33 29.86 1011 10 16.0934 0 0
5:53 pm 17:53 Mostly Sunny 70 21.1 29 -1.7 22 22 S 15 24 29.84 1011 10 16.0934 0 0
6:53 pm 18:53 Clear 69 20.6 29 -1.7 22 22 S 10 17 29.83 1010 10 16.0934 0 0
7:53 pm 19:53 Mostly Clear 69 20.6 29 -1.7 22 22 SW 8 13 29.81 1010 10 16.0934 0 0
8:53 pm 20:53 Clear 69 20.6 28 -2.2 22 22 SSW 14 22 29.77 1008 10 16.0934 0 0
9:53 pm 21:53 Clear 64 17.8 27 -2.8 25 25 SW 9 15 29.75 1008 10 16.0934 0 0
10:53 pm 22:53 Clear 66 18.9 26 -3.3 22 22 SW 10 17 29.7 1006 10 16.0934 0 0
11:53 pm 23:53 Clear 70 21.1 24 -4.4 18 18 W 9 15 29.66 1004 10 16.0934 0 0

Powered by AerisWeather